Time,TemperatureF,DewpointF,PressureIn,WindDirection,WindDirectionDegrees,WindSpeedMPH,WindSpeedGustMPH,Humidity,HourlyPrecipIn,Conditions,Clouds,dailyrainin,SoftwareType,DateUTC
2013-08-10 00:00:00,73.0,45.2,29.83,SW,230,0.0,15.0,37,0.00,,---,0.00,VWS V14.01,2013-08-10 04:00:00,
2013-08-10 00:01:00,73.0,45.2,29.83,SW,228,9.0,15.0,37,0.00,,---,0.56,VWS V14.01,2013-08-10 04:01:00,
2013-08-10 00:05:00,73.0,45.2,29.83,SW,224,9.0,11.0,37,0.00,,---,0.00,VWS V14.01,2013-08-10 04:05:00,
2013-08-10 00:06:00,73.0,45.2,29.83,SW,232,9.0,9.0,37,0.00,,---,0.00,VWS V14.01,2013-08-10 04:06:00,
2013-08-10 00:10:00,73.0,45.2,29.83,SW,219,6.0,13.0,37,0.00,,---,0.00,VWS V14.01,2013-08-10 04:10:00,
2013-08-10 00:11:00,73.1,45.3,29.83,SSW,201,9.0,13.0,37,0.00,,---,0.00,VWS V14.01,2013-08-10 04:11:00,
2013-08-10 00:15:00,73.1,45.3,29.83,SW,214,14.0,14.0,37,0.00,,---,0.00,VWS V14.01,2013-08-10 04:15:00,
2013-08-10 00:16:00,73.1,45.3,29.83,SSW,210,12.0,14.0,37,0.00,,---,0.00,VWS V14.01,2013-08-10 04:16:00,
2013-08-10 00:20:00,73.1,45.3,29.83,SW,222,8.0,14.0,37,0.00,,---,0.00,VWS V14.01,2013-08-10 04:20:00,
2013-08-10 00:21:00,73.1,45.3,29.83,SW,221,6.0,8.0,37,0.00,,---,0.00,VWS V14.01,2013-08-10 04:21:00,
2013-08-10 00:25:00,73.2,45.4,29.82,SW,214,12.0,12.0,37,0.00,,---,0.00,VWS V14.01,2013-08-10 04:25:00,
2013-08-10 00:26:00,73.2,45.4,29.82,SW,236,6.0,13.0,37,0.00,,---,0.00,VWS V14.01,2013-08-10 04:26:00,
2013-08-10 00:30:00,73.1,45.3,29.82,SW,226,9.0,13.0,37,0.00,,---,0.00,VWS V14.01,2013-08-10 04:30:00,
2013-08-10 00:31:00,73.1,45.3,29.82,SSW,196,4.0,9.0,37,0.00,,---,0.00,VWS V14.01,2013-08-10 04:31:00,
2013-08-10 00:35:00,73.1,45.3,29.82,SW,220,9.0,10.0,37,0.00,,---,0.00,VWS V14.01,2013-08-10 04:35:00,
2013-08-10 00:36:00,73.1,45.3,29.82,South,190,7.0,9.0,37,0.00,,---,0.00,VWS V14.01,2013-08-10 04:36:00,
2013-08-10 00:40:00,73.1,45.3,29.82,SW,215,9.0,12.0,37,0.00,,---,0.00,VWS V14.01,2013-08-10 04:40:00,
2013-08-10 00:41:00,73.1,45.3,29.82,SW,227,11.0,11.0,37,0.00,,---,0.00,VWS V14.01,2013-08-10 04:41:00,
2013-08-10 00:45:00,73.2,45.4,29.82,WSW,242,12.0,12.0,37,0.00,,---,0.00,VWS V14.01,2013-08-10 04:45:00,
2013-08-10 00:46:00,73.2,45.4,29.82,SW,219,3.0,12.0,37,0.00,,---,0.00,VWS V14.01,2013-08-10 04:46:00,
2013-08-10 00:50:00,73.2,45.4,29.82,SW,232,4.0,12.0,37,0.00,,---,0.00,VWS V14.01,2013-08-10 04:50:00,
2013-08-10 00:51:00,73.2,45.4,29.82,SSW,209,0.0,4.0,37,0.00,,---,0.00,VWS V14.01,2013-08-10 04:51:00,
2013-08-10 00:55:00,73.2,45.4,29.82,WSW,242,0.0,4.0,37,0.00,,---,0.00,VWS V14.01,2013-08-10 04:55:00,
2013-08-10 00:56:00,73.2,45.4,29.82,WSW,242,0.0,0.0,37,0.00,,---,0.00,VWS V14.01,2013-08-10 04:56:00,
2013-08-10 01:00:00,73.2,45.4,29.82,SSW,197,2.0,8.0,37,0.00,,---,0.00,VWS V14.01,2013-08-10 05:00:00,
2013-08-10 01:01:00,73.2,45.4,29.82,WSW,239,5.0,5.0,37,0.00,,---,0.00,VWS V14.01,2013-08-10 05:01:00,
2013-08-10 01:05:00,73.2,45.4,29.82,SSW,209,11.0,11.0,37,0.00,,---,0.00,VWS V14.01,2013-08-10 05:05:00,
2013-08-10 01:06:00,73.2,45.4,29.83,SW,230,1.0,11.0,37,0.00,,---,0.00,VWS V14.01,2013-08-10 05:06:00,
2013-08-10 01:10:00,73.3,45.5,29.83,SW,223,5.0,11.0,37,0.00,,---,0.00,VWS V14.01,2013-08-10 05:10:00,
2013-08-10 01:11:00,73.2,45.4,29.83,SW,228,6.0,9.0,37,0.00,,---,0.00,VWS V14.01,2013-08-10 05:11:00,
2013-08-10 01:15:00,73.3,45.5,29.82,SW,222,7.0,10.0,37,0.00,,---,0.00,VWS V14.01,2013-08-10 05:15:00,
2013-08-10 01:16:00,73.3,45.5,29.82,South,183,11.0,11.0,37,0.00,,---,0.00,VWS V14.01,2013-08-10 05:16:00,
2013-08-10 01:20:00,73.1,45.3,29.82,SW,221,10.0,13.0,37,0.00,,---,0.00,VWS V14.01,2013-08-10 05:20:00,
2013-08-10 01:21:00,73.1,45.3,29.82,SW,216,4.0,10.0,37,0.00,,---,0.00,VWS V14.01,2013-08-10 05:21:00,
2013-08-10 01:25:00,73.0,45.2,29.82,SW,215,0.0,10.0,37,0.00,,---,0.00,VWS V14.01,2013-08-10 05:25:00,
2013-08-10 01:26:00,73.1,45.3,29.82,SSW,207,2.0,2.0,37,0.00,,---,0.00,VWS V14.01,2013-08-10 05:26:00,
2013-08-10 01:30:00,72.9,45.1,29.82,SSW,211,10.0,13.0,37,0.00,,---,0.00,VWS V14.01,2013-08-10 05:30:00,
2013-08-10 01:31:00,73.0,45.2,29.82,SW,222,6.0,10.0,37,0.00,,---,0.00,VWS V14.01,2013-08-10 05:31:00,
2013-08-10 01:35:00,72.9,45.1,29.82,SW,217,3.0,12.0,37,0.00,,---,0.00,VWS V14.01,2013-08-10 05:35:00,
2013-08-10 01:36:00,72.9,45.1,29.82,SSW,205,7.0,7.0,37,0.00,,---,0.00,VWS V14.01,2013-08-10 05:36:00,
2013-08-10 01:40:00,72.8,45.0,29.82,SW,231,5.0,11.0,37,0.00,,---,0.00,VWS V14.01,2013-08-10 05:40:00,
2013-08-10 01:41:00,72.8,45.0,29.82,SW,222,5.0,5.0,37,0.00,,---,0.00,VWS V14.01,2013-08-10 05:41:00,
2013-08-10 01:45:00,72.8,45.0,29.82,SW,222,4.0,11.0,37,0.00,,---,0.00,VWS V14.01,2013-08-10 05:45:00,
2013-08-10 01:46:00,72.8,45.0,29.82,SW,224,0.0,4.0,37,0.00,,---,0.00,VWS V14.01,2013-08-10 05:46:00,
2013-08-10 01:50:00,72.8,45.0,29.82,SW,214,7.0,10.0,37,0.00,,---,0.00,VWS V14.01,2013-08-10 05:50:00,
2013-08-10 01:51:00,72.8,45.0,29.82,SW,235,4.0,7.0,37,0.00,,---,0.00,VWS V14.01,2013-08-10 05:51:00,
2013-08-10 01:55:00,72.8,45.0,29.82,SW,234,6.0,11.0,37,0.00,,---,0.00,VWS V14.01,2013-08-10 05:55:00,
2013-08-10 01:56:00,72.8,45.0,29.82,SW,227,0.0,6.0,37,0.00,,---,0.00,VWS V14.01,2013-08-10 05:56:00,
2013-08-10 02:00:00,72.9,45.1,29.81,SSW,205,3.0,10.0,37,0.00,,---,0.00,VWS V14.01,2013-08-10 06:00:00,
2013-08-10 02:01:00,72.8,45.0,29.81,SW,226,10.0,10.0,37,0.00,,---,0.00,VWS V14.01,2013-08-10 06:01:00,
2013-08-10 02:05:00,72.9,45.1,29.82,SSW,211,5.0,10.0,37,0.00,,---,0.00,VWS V14.01,2013-08-10 06:05:00,
2013-08-10 02:06:00,72.9,45.1,29.82,SW,222,1.0,5.0,37,0.00,,---,0.00,VWS V14.01,2013-08-10 06:06:00,
2013-08-10 02:10:00,72.9,45.1,29.82,SW,228,6.0,9.0,37,0.00,,---,0.00,VWS V14.01,2013-08-10 06:10:00,
2013-08-10 02:11:00,72.9,45.1,29.82,SW,234,6.0,6.0,37,0.00,,---,0.00,VWS V14.01,2013-08-10 06:11:00,
2013-08-10 02:15:00,72.9,45.1,29.82,SW,217,7.0,9.0,37,0.00,,---,0.00,VWS V14.01,2013-08-10 06:15:00,
2013-08-10 02:16:00,72.9,45.1,29.83,SW,216,9.0,9.0,37,0.00,,---,0.00,VWS V14.01,2013-08-10 06:16:00,
2013-08-10 02:20:00,73.0,45.2,29.83,SW,233,1.0,12.0,37,0.00,,---,0.00,VWS V14.01,2013-08-10 06:20:00,
2013-08-10 02:21:00,73.0,45.2,29.83,SW,234,5.0,5.0,37,0.00,,---,0.00,VWS V14.01,2013-08-10 06:21:00,
2013-08-10 02:25:00,73.0,45.2,29.83,SSW,211,4.0,10.0,37,0.00,,---,0.00,VWS V14.01,2013-08-10 06:25:00,
2013-08-10 02:26:00,73.0,45.2,29.83,WSW,244,0.0,4.0,37,0.00,,---,0.00,VWS V14.01,2013-08-10 06:26:00,
2013-08-10 02:30:00,73.0,45.2,29.83,SW,236,0.0,10.0,37,0.00,,---,0.00,VWS V14.01,2013-08-10 06:30:00,
2013-08-10 02:31:00,73.0,45.2,29.83,WSW,237,0.0,0.0,37,0.00,,---,0.00,VWS V14.01,2013-08-10 06:31:00,
2013-08-10 02:35:00,73.0,45.2,29.83,SW,226,6.0,12.0,37,0.00,,---,0.00,VWS V14.01,2013-08-10 06:35:00,
2013-08-10 02:36:00,73.0,45.2,29.83,SW,227,5.0,6.0,37,0.00,,---,0.00,VWS V14.01,2013-08-10 06:36:00,
2013-08-10 02:40:00,72.9,45.1,29.82,SW,217,0.0,9.0,37,0.00,,---,0.00,VWS V14.01,2013-08-10 06:40:00,
2013-08-10 02:41:00,73.0,45.2,29.82,SW,217,3.0,3.0,37,0.00,,---,0.00,VWS V14.01,2013-08-10 06:41:00,
2013-08-10 02:45:00,72.9,45.1,29.83,SSW,203,0.0,7.0,37,0.00,,---,0.00,VWS V14.01,2013-08-10 06:45:00,
2013-08-10 02:46:00,72.9,45.1,29.83,SSW,206,2.0,2.0,37,0.00,,---,0.00,VWS V14.01,2013-08-10 06:46:00,
2013-08-10 02:50:00,72.9,45.1,29.83,SW,226,5.0,8.0,37,0.00,,---,0.00,VWS V14.01,2013-08-10 06:50:00,
2013-08-10 02:51:00,72.9,45.1,29.83,SW,226,2.0,5.0,37,0.00,,---,0.00,VWS V14.01,2013-08-10 06:51:00,
2013-08-10 02:55:00,73.0,45.2,29.83,SSW,213,0.0,8.0,37,0.00,,---,0.00,VWS V14.01,2013-08-10 06:55:00,
2013-08-10 02:56:00,73.0,45.2,29.83,SSW,213,0.0,0.0,37,0.00,,---,0.00,VWS V14.01,2013-08-10 06:56:00,
2013-08-10 03:00:00,73.0,45.2,29.83,SW,222,0.0,5.0,37,0.00,,---,0.00,VWS V14.01,2013-08-10 07:00:00,
2013-08-10 03:01:00,73.0,45.2,29.83,SW,222,2.0,2.0,37,0.00,,---,0.00,VWS V14.01,2013-08-10 07:01:00,
2013-08-10 03:05:00,73.1,45.3,29.83,SW,231,3.0,6.0,37,0.00,,---,0.00,VWS V14.01,2013-08-10 07:05:00,
2013-08-10 03:06:00,73.1,45.3,29.83,SW,231,3.0,6.0,37,0.00,,---,0.00,VWS V14.01,2013-08-10 07:06:00,
2013-08-10 03:10:00,73.1,45.3,29.83,SW,217,0.0,9.0,37,0.00,,---,0.00,VWS V14.01,2013-08-10 07:10:00,
2013-08-10 03:11:00,73.1,45.3,29.83,SW,217,0.0,0.0,37,0.00,,---,0.00,VWS V14.01,2013-08-10 07:11:00,
2013-08-10 03:12:00,73.1,45.3,29.82,SW,222,0.0,3.0,37,0.00,,---,0.00,VWS V14.01,2013-08-10 07:12:00,
2013-08-10 03:15:00,73.1,45.3,29.82,WSW,244,0.0,4.0,37,0.00,,---,0.00,VWS V14.01,2013-08-10 07:15:00,
2013-08-10 03:17:00,73.1,45.3,29.82,WSW,240,0.0,0.0,37,0.00,,---,0.00,VWS V14.01,2013-08-10 07:17:00,
2013-08-10 03:20:00,73.1,45.3,29.82,SW,223,0.0,4.0,37,0.00,,---,0.00,VWS V14.01,2013-08-10 07:20:00,
2013-08-10 03:22:00,73.1,45.3,29.82,SW,221,0.0,5.0,37,0.00,,---,0.00,VWS V14.01,2013-08-10 07:22:00,
2013-08-10 03:25:00,73.1,45.3,29.82,SW,220,0.0,5.0,37,0.00,,---,0.00,VWS V14.01,2013-08-10 07:25:00,
2013-08-10 03:27:00,73.1,45.3,29.83,SW,222,0.0,0.0,37,0.00,,---,0.00,VWS V14.01,2013-08-10 07:27:00,
2013-08-10 03:30:00,73.1,45.3,29.83,SSW,203,3.0,4.0,37,0.00,,---,0.00,VWS V14.01,2013-08-10 07:30:00,
2013-08-10 03:32:00,73.1,45.3,29.83,SW,226,0.0,3.0,37,0.00,,---,0.00,VWS V14.01,2013-08-10 07:32:00,
2013-08-10 03:35:00,73.2,45.4,29.83,SW,222,0.0,4.0,37,0.00,,---,0.00,VWS V14.01,2013-08-10 07:35:00,
2013-08-10 03:37:00,73.1,45.3,29.83,SSW,211,4.0,4.0,37,0.00,,---,0.00,VWS V14.01,2013-08-10 07:37:00,
2013-08-10 03:40:00,73.2,45.4,29.83,West,281,0.0,4.0,37,0.00,,---,0.00,VWS V14.01,2013-08-10 07:40:00,
2013-08-10 03:42:00,73.2,45.4,29.83,SW,226,0.0,2.0,37,0.00,,---,0.00,VWS V14.01,2013-08-10 07:42:00,
2013-08-10 03:45:00,73.2,45.4,29.84,SW,234,0.0,4.0,37,0.00,,---,0.00,VWS V14.01,2013-08-10 07:45:00,
2013-08-10 03:47:00,73.2,45.4,29.84,WSW,244,0.0,5.0,37,0.00,,---,0.00,VWS V14.01,2013-08-10 07:47:00,
2013-08-10 03:50:00,73.2,45.4,29.83,WSW,245,0.0,5.0,37,0.00,,---,0.00,VWS V14.01,2013-08-10 07:50:00,
2013-08-10 03:52:00,73.2,45.4,29.83,SW,230,0.0,0.0,37,0.00,,---,0.00,VWS V14.01,2013-08-10 07:52:00,
2013-08-10 03:55:00,73.3,45.5,29.84,NW,309,0.0,3.0,37,0.00,,---,0.00,VWS V14.01,2013-08-10 07:55:00,
2013-08-10 03:57:00,73.3,45.5,29.84,WSW,251,0.0,1.0,37,0.00,,---,0.00,VWS V14.01,2013-08-10 07:57:00,
2013-08-10 04:00:00,73.3,45.5,29.84,WSW,243,0.0,3.0,37,0.00,,---,0.00,VWS V14.01,2013-08-10 08:00:00,
2013-08-10 04:02:00,73.2,45.4,29.84,SW,231,1.0,1.0,37,0.00,,---,0.00,VWS V14.01,2013-08-10 08:02:00,
2013-08-10 04:05:00,73.3,45.5,29.84,SW,232,0.0,4.0,37,0.00,,---,0.00,VWS V14.01,2013-08-10 08:05:00,
2013-08-10 04:07:00,73.2,45.4,29.84,WSW,250,0.0,3.0,37,0.00,,---,0.00,VWS V14.01,2013-08-10 08:07:00,
2013-08-10 04:10:00,73.2,45.4,29.84,WSW,255,0.0,3.0,37,0.00,,---,0.00,VWS V14.01,2013-08-10 08:10:00,
2013-08-10 04:12:00,73.3,45.5,29.84,WSW,247,0.0,2.0,37,0.00,,---,0.00,VWS V14.01,2013-08-10 08:12:00,
2013-08-10 04:15:00,73.3,45.5,29.84,WSW,244,0.0,4.0,37,0.00,,---,0.00,VWS V14.01,2013-08-10 08:15:00,
2013-08-10 04:17:00,73.3,45.5,29.84,SW,226,1.0,4.0,37,0.00,,---,0.00,VWS V14.01,2013-08-10 08:17:00,
2013-08-10 04:20:00,73.3,45.5,29.84,SW,231,3.0,4.0,37,0.00,,---,0.00,VWS V14.01,2013-08-10 08:20:00,
2013-08-10 04:22:00,73.3,45.5,29.84,WNW,289,0.0,3.0,37,0.00,,---,0.00,VWS V14.01,2013-08-10 08:22:00,
2013-08-10 04:25:00,73.2,45.4,29.84,WSW,240,2.0,6.0,37,0.00,,---,0.00,VWS V14.01,2013-08-10 08:25:00,
2013-08-10 04:27:00,73.2,45.4,29.84,WNW,287,0.0,2.0,37,0.00,,---,0.00,VWS V14.01,2013-08-10 08:27:00,
2013-08-10 04:30:00,73.2,45.4,29.84,SW,232,0.0,2.0,37,0.00,,---,0.00,VWS V14.01,2013-08-10 08:30:00,
2013-08-10 04:32:00,73.2,45.4,29.84,SW,232,0.0,0.0,37,0.00,,---,0.00,VWS V14.01,2013-08-10 08:32:00,
2013-08-10 04:35:00,73.1,45.3,29.85,West,272,0.0,7.0,37,0.00,,---,0.00,VWS V14.01,2013-08-10 08:35:00,
2013-08-10 04:37:00,73.1,45.3,29.84,SW,226,0.0,0.0,37,0.00,,---,0.00,VWS V14.01,2013-08-10 08:37:00,
2013-08-10 04:40:00,73.1,45.3,29.85,West,276,0.0,7.0,37,0.00,,---,0.00,VWS V14.01,2013-08-10 08:40:00,
2013-08-10 04:42:00,73.1,45.3,29.85,WNW,288,0.0,4.0,37,0.00,,---,0.00,VWS V14.01,2013-08-10 08:42:00,
2013-08-10 04:45:00,73.0,45.2,29.85,WSW,241,0.0,5.0,37,0.00,,---,0.00,VWS V14.01,2013-08-10 08:45:00,
2013-08-10 04:47:00,73.0,45.2,29.85,WNW,288,0.0,0.0,37,0.00,,---,0.00,VWS V14.01,2013-08-10 08:47:00,
2013-08-10 04:50:00,73.0,45.2,29.85,SW,215,0.0,1.0,37,0.00,,---,0.00,VWS V14.01,2013-08-10 08:50:00,
2013-08-10 04:52:00,72.9,45.1,29.85,SW,233,0.0,3.0,37,0.00,,---,0.00,VWS V14.01,2013-08-10 08:52:00,
2013-08-10 04:55:00,72.9,45.1,29.85,West,273,0.0,3.0,37,0.00,,---,0.00,VWS V14.01,2013-08-10 08:55:00,
2013-08-10 04:57:00,72.9,45.1,29.85,SSW,209,0.0,4.0,37,0.00,,---,0.00,VWS V14.01,2013-08-10 08:57:00,
2013-08-10 05:00:00,72.8,45.0,29.85,WSW,240,0.0,4.0,37,0.00,,---,0.00,VWS V14.01,2013-08-10 09:00:00,
2013-08-10 05:02:00,72.8,45.0,29.85,WSW,241,4.0,4.0,37,0.00,,---,0.00,VWS V14.01,2013-08-10 09:02:00,
2013-08-10 05:05:00,72.7,45.0,29.85,WSW,257,0.0,4.0,37,0.00,,---,0.00,VWS V14.01,2013-08-10 09:05:00,
2013-08-10 05:07:00,72.7,45.0,29.85,NW,315,0.0,2.0,37,0.00,,---,0.00,VWS V14.01,2013-08-10 09:07:00,
2013-08-10 05:10:00,72.6,44.9,29.85,WSW,254,0.0,3.0,37,0.00,,---,0.00,VWS V14.01,2013-08-10 09:10:00,
2013-08-10 05:12:00,72.6,44.9,29.85,SSW,213,1.0,5.0,37,0.00,,---,0.00,VWS V14.01,2013-08-10 09:12:00,
2013-08-10 05:15:00,72.5,44.8,29.85,WSW,240,0.0,5.0,37,0.00,,---,0.00,VWS V14.01,2013-08-10 09:15:00,
2013-08-10 05:17:00,72.5,44.8,29.85,SW,233,0.0,6.0,37,0.00,,---,0.00,VWS V14.01,2013-08-10 09:17:00,
2013-08-10 05:20:00,72.4,44.7,29.85,West,259,1.0,6.0,37,0.00,,---,0.00,VWS V14.01,2013-08-10 09:20:00,
2013-08-10 05:22:00,72.4,44.7,29.86,WSW,251,0.0,3.0,37,0.00,,---,0.00,VWS V14.01,2013-08-10 09:22:00,
2013-08-10 05:25:00,72.3,44.6,29.86,West,261,0.0,5.0,37,0.00,,---,0.00,VWS V14.01,2013-08-10 09:25:00,
2013-08-10 05:27:00,72.2,44.5,29.86,WNW,294,4.0,4.0,37,0.00,,---,0.00,VWS V14.01,2013-08-10 09:27:00,
2013-08-10 05:30:00,72.1,44.4,29.86,WSW,237,0.0,4.0,37,0.00,,---,0.00,VWS V14.01,2013-08-10 09:30:00,
2013-08-10 05:32:00,72.1,44.4,29.86,WSW,253,0.0,3.0,37,0.00,,---,0.00,VWS V14.01,2013-08-10 09:32:00,
2013-08-10 05:35:00,71.9,44.2,29.86,WSW,241,0.0,5.0,37,0.00,,---,0.00,VWS V14.01,2013-08-10 09:35:00,
2013-08-10 05:37:00,71.9,44.2,29.86,SSW,195,6.0,6.0,37,0.00,,---,0.00,VWS V14.01,2013-08-10 09:37:00,
2013-08-10 05:40:00,71.8,44.2,29.86,SW,225,0.0,6.0,37,0.00,,---,0.00,VWS V14.01,2013-08-10 09:40:00,
2013-08-10 05:42:00,71.8,44.2,29.86,West,276,0.0,3.0,37,0.00,,---,0.00,VWS V14.01,2013-08-10 09:42:00,
2013-08-10 05:45:00,71.7,44.1,29.86,SW,230,0.0,7.0,37,0.00,,---,0.00,VWS V14.01,2013-08-10 09:45:00,
2013-08-10 05:47:00,71.6,44.0,29.86,WNW,291,0.0,3.0,37,0.00,,---,0.00,VWS V14.01,2013-08-10 09:47:00,
2013-08-10 05:50:00,71.5,43.9,29.87,WSW,244,0.0,3.0,37,0.00,,---,0.00,VWS V14.01,2013-08-10 09:50:00,
2013-08-10 05:52:00,71.5,43.9,29.87,WNW,288,0.0,3.0,37,0.00,,---,0.00,VWS V14.01,2013-08-10 09:52:00,
2013-08-10 05:55:00,71.3,43.7,29.87,SW,232,0.0,8.0,37,0.00,,---,0.00,VWS V14.01,2013-08-10 09:55:00,
2013-08-10 05:57:00,71.3,43.7,29.87,WNW,284,6.0,6.0,37,0.00,,---,0.00,VWS V14.01,2013-08-10 09:57:00,
2013-08-10 06:00:00,71.2,43.6,29.87,West,265,2.0,7.0,37,0.00,,---,0.00,VWS V14.01,2013-08-10 10:00:00,
2013-08-10 06:02:00,71.2,43.6,29.87,West,267,0.0,2.0,37,0.00,,---,0.00,VWS V14.01,2013-08-10 10:02:00,
2013-08-10 06:05:00,71.1,43.5,29.87,NW,305,3.0,5.0,37,0.00,,---,0.00,VWS V14.01,2013-08-10 10:05:00,
2013-08-10 06:07:00,71.0,43.4,29.87,WNW,282,0.0,3.0,37,0.00,,---,0.00,VWS V14.01,2013-08-10 10:07:00,
2013-08-10 06:10:00,71.0,43.4,29.87,West,274,5.0,5.0,37,0.00,,---,0.00,VWS V14.01,2013-08-10 10:10:00,
2013-08-10 06:12:00,70.9,43.4,29.87,West,278,2.0,5.0,37,0.00,,---,0.00,VWS V14.01,2013-08-10 10:12:00,
2013-08-10 06:15:00,70.8,43.3,29.87,NW,307,0.0,6.0,37,0.00,,---,0.00,VWS V14.01,2013-08-10 10:15:00,
2013-08-10 06:17:00,70.8,43.3,29.88,West,263,0.0,4.0,37,0.00,,---,0.00,VWS V14.01,2013-08-10 10:17:00,
2013-08-10 06:20:00,70.8,43.3,29.87,WSW,248,0.0,6.0,37,0.00,,---,0.00,VWS V14.01,2013-08-10 10:20:00,
2013-08-10 06:22:00,70.8,43.3,29.87,SW,234,0.0,4.0,37,0.00,,---,0.00,VWS V14.01,2013-08-10 10:22:00,
2013-08-10 06:25:00,70.8,43.3,29.88,WSW,248,1.0,8.0,37,0.00,,---,0.00,VWS V14.01,2013-08-10 10:25:00,
2013-08-10 06:30:00,70.9,42.6,29.88,WSW,248,1.0,6.0,36,0.00,,---,0.00,VWS V14.01,2013-08-10 10:30:00,
2013-08-10 06:35:00,71.0,42.7,29.88,WNW,292,1.0,8.0,36,0.00,,---,0.00,VWS V14.01,2013-08-10 10:35:00,
2013-08-10 06:40:00,71.0,42.7,29.88,West,270,1.0,8.0,36,0.00,,---,0.00,VWS V14.01,2013-08-10 10:40:00,
2013-08-10 06:45:00,71.2,42.9,29.88,WNW,292,1.0,8.0,36,0.00,,---,0.00,VWS V14.01,2013-08-10 10:45:00,
2013-08-10 06:59:00,71.3,42.3,29.88,WNW,292,2.0,10.0,35,0.00,,---,0.00,VWS V14.01,2013-08-10 10:59:00,
2013-08-10 07:04:00,71.9,42.0,29.88,NW,323,5.0,10.0,34,0.00,,---,0.00,VWS V14.01,2013-08-10 11:04:00,
2013-08-10 07:09:00,72.0,42.9,29.88,West,281,3.0,10.0,35,0.00,,---,0.00,VWS V14.01,2013-08-10 11:09:00,
2013-08-10 07:14:00,72.0,45.7,29.88,NW,314,7.0,10.0,39,0.00,,---,0.00,VWS V14.01,2013-08-10 11:14:00,
2013-08-10 07:19:00,71.7,48.0,29.89,SW,223,2.0,8.0,43,0.00,,---,0.00,VWS V14.01,2013-08-10 11:19:00,
2013-08-10 07:24:00,71.5,49.1,29.90,NW,307,0.0,7.0,45,0.00,,---,0.00,VWS V14.01,2013-08-10 11:24:00,
2013-08-10 07:29:00,71.3,50.0,29.89,WNW,286,4.0,7.0,47,0.00,,---,0.00,VWS V14.01,2013-08-10 11:29:00,
2013-08-10 07:34:00,71.3,50.0,29.90,WSW,257,2.0,4.0,47,0.00,,---,0.00,VWS V14.01,2013-08-10 11:34:00,
2013-08-10 07:39:00,71.5,50.8,29.90,WNW,289,4.0,8.0,48,0.00,,---,0.00,VWS V14.01,2013-08-10 11:39:00,
2013-08-10 07:44:00,71.5,51.9,29.90,NW,308,10.0,11.0,50,0.00,,---,0.00,VWS V14.01,2013-08-10 11:44:00,
2013-08-10 07:49:00,71.5,53.0,29.90,SSW,205,2.0,7.0,52,0.00,,---,0.00,VWS V14.01,2013-08-10 11:49:00,
2013-08-10 07:54:00,71.8,52.7,29.90,West,261,0.0,6.0,51,0.00,,---,0.00,VWS V14.01,2013-08-10 11:54:00,
2013-08-10 07:59:00,72.0,54.0,29.91,WSW,243,4.0,10.0,53,0.00,,---,0.00,VWS V14.01,2013-08-10 11:59:00,
2013-08-10 08:04:00,72.3,54.7,29.91,NW,305,4.0,11.0,54,0.00,,---,0.00,VWS V14.01,2013-08-10 12:04:00,
2013-08-10 08:09:00,72.5,56.4,29.90,WNW,296,7.0,11.0,57,0.00,,---,0.00,VWS V14.01,2013-08-10 12:09:00,
2013-08-10 08:14:00,72.8,57.2,29.91,NW,306,0.0,8.0,58,0.00,,---,0.00,VWS V14.01,2013-08-10 12:14:00,
2013-08-10 08:19:00,73.1,57.9,29.90,WNW,286,4.0,9.0,59,0.00,,---,0.00,VWS V14.01,2013-08-10 12:19:00,
2013-08-10 08:24:00,73.5,58.3,29.90,WNW,289,3.0,7.0,59,0.00,,---,0.00,VWS V14.01,2013-08-10 12:24:00,
2013-08-10 08:29:00,73.8,59.5,29.90,NW,312,4.0,7.0,61,0.00,,---,0.00,VWS V14.01,2013-08-10 12:29:00,
2013-08-10 08:34:00,74.1,59.8,29.90,NW,306,1.0,11.0,61,0.00,,---,0.00,VWS V14.01,2013-08-10 12:34:00,
2013-08-10 08:39:00,74.5,60.2,29.90,NNW,339,0.0,8.0,61,0.00,,---,0.00,VWS V14.01,2013-08-10 12:39:00,
2013-08-10 08:44:00,74.8,60.9,29.90,WSW,246,0.0,7.0,62,0.00,,---,0.00,VWS V14.01,2013-08-10 12:44:00,
2013-08-10 08:49:00,75.1,62.5,29.90,NW,314,1.0,11.0,65,0.00,,---,0.00,VWS V14.01,2013-08-10 12:49:00,
2013-08-10 08:54:00,75.3,62.7,29.90,NNW,327,3.0,7.0,65,0.00,,---,0.00,VWS V14.01,2013-08-10 12:54:00,
2013-08-10 08:59:00,75.4,62.8,29.91,WNW,297,6.0,8.0,65,0.00,,---,0.00,VWS V14.01,2013-08-10 12:59:00,
2013-08-10 09:04:00,75.7,62.7,29.91,West,266,2.0,8.0,64,0.00,,---,0.00,VWS V14.01,2013-08-10 13:04:00,
2013-08-10 09:09:00,76.0,64.3,29.91,North,350,3.0,9.0,67,0.00,,---,0.00,VWS V14.01,2013-08-10 13:09:00,
2013-08-10 09:14:00,76.2,64.9,29.91,WNW,292,0.0,12.0,68,0.00,,---,0.00,VWS V14.01,2013-08-10 13:14:00,
2013-08-10 09:19:00,76.3,65.4,29.91,WNW,283,5.0,12.0,69,0.00,,---,0.00,VWS V14.01,2013-08-10 13:19:00,
2013-08-10 09:24:00,76.3,65.0,29.91,WNW,303,8.0,15.0,68,0.00,,---,0.00,VWS V14.01,2013-08-10 13:24:00,
2013-08-10 09:29:00,76.4,65.5,29.91,NW,315,7.0,18.0,69,0.00,,---,0.00,VWS V14.01,2013-08-10 13:29:00,
2013-08-10 09:34:00,76.2,65.3,29.91,NNW,335,4.0,12.0,69,0.00,,---,0.00,VWS V14.01,2013-08-10 13:34:00,
2013-08-10 09:39:00,76.0,65.1,29.91,NNW,328,8.0,13.0,69,0.00,,---,0.00,VWS V14.01,2013-08-10 13:39:00,
2013-08-10 09:44:00,76.0,65.1,29.91,NNW,340,6.0,9.0,69,0.00,,---,0.00,VWS V14.01,2013-08-10 13:44:00,
2013-08-10 09:49:00,75.9,65.0,29.91,NNW,340,0.0,10.0,69,0.00,,---,0.00,VWS V14.01,2013-08-10 13:49:00,
2013-08-10 09:54:00,75.9,65.0,29.92,North,355,1.0,9.0,69,0.00,,---,0.00,VWS V14.01,2013-08-10 13:54:00,
2013-08-10 09:59:00,76.0,65.1,29.92,NNW,329,2.0,8.0,69,0.00,,---,0.00,VWS V14.01,2013-08-10 13:59:00,
2013-08-10 10:04:00,76.5,65.6,29.92,NNW,343,4.0,8.0,69,0.00,,---,0.00,VWS V14.01,2013-08-10 14:04:00,
2013-08-10 10:09:00,76.9,65.5,29.92,North,4,3.0,8.0,68,0.00,,---,0.00,VWS V14.01,2013-08-10 14:09:00,
2013-08-10 10:14:00,77.3,65.9,29.92,NW,324,0.0,10.0,68,0.00,,---,0.00,VWS V14.01,2013-08-10 14:14:00,
2013-08-10 10:19:00,77.6,65.8,29.91,NW,307,6.0,12.0,67,0.00,,---,0.00,VWS V14.01,2013-08-10 14:19:00,
2013-08-10 10:24:00,77.6,65.3,29.92,NW,316,11.0,11.0,66,0.00,,---,0.00,VWS V14.01,2013-08-10 14:24:00,
2013-08-10 10:29:00,77.5,64.8,29.91,NNW,327,5.0,18.0,65,0.00,,---,0.00,VWS V14.01,2013-08-10 14:29:00,
2013-08-10 10:34:00,77.8,65.1,29.91,North,353,1.0,10.0,65,0.00,,---,0.00,VWS V14.01,2013-08-10 14:34:00,
2013-08-10 10:39:00,78.4,65.7,29.92,WNW,298,4.0,11.0,65,0.00,,---,0.00,VWS V14.01,2013-08-10 14:39:00,
2013-08-10 10:44:00,78.7,65.5,29.91,NNW,338,4.0,9.0,64,0.00,,---,0.00,VWS V14.01,2013-08-10 14:44:00,
2013-08-10 10:49:00,79.3,66.5,29.91,WNW,303,5.0,11.0,65,0.00,,---,0.00,VWS V14.01,2013-08-10 14:49:00,
2013-08-10 10:54:00,79.6,65.9,29.92,NW,311,5.0,11.0,63,0.00,,---,0.00,VWS V14.01,2013-08-10 14:54:00,
2013-08-10 10:59:00,80.0,66.3,29.92,NW,309,10.0,10.0,63,0.00,,---,0.00,VWS V14.01,2013-08-10 14:59:00,
2013-08-10 11:04:00,80.1,65.4,29.92,NW,307,3.0,11.0,61,0.00,,---,0.00,VWS V14.01,2013-08-10 15:04:00,
2013-08-10 11:09:00,80.0,65.4,29.92,WSW,254,5.0,10.0,61,0.00,,---,0.00,VWS V14.01,2013-08-10 15:09:00,
2013-08-10 11:14:00,79.9,65.7,29.92,WNW,295,0.0,8.0,62,0.00,,---,0.00,VWS V14.01,2013-08-10 15:14:00,
2013-08-10 11:19:00,79.7,66.0,29.92,WNW,292,0.0,6.0,63,0.00,,---,0.00,VWS V14.01,2013-08-10 15:19:00,
2013-08-10 11:24:00,79.6,66.8,29.91,NNW,334,4.0,4.0,65,0.00,,---,0.00,VWS V14.01,2013-08-10 15:24:00,
2013-08-10 11:29:00,79.8,66.6,29.91,West,278,0.0,7.0,64,0.00,,---,0.00,VWS V14.01,2013-08-10 15:29:00,
2013-08-10 11:33:00,80.2,66.0,29.91,WNW,299,5.0,9.0,62,0.00,,---,0.00,VWS V14.01,2013-08-10 15:33:00,
2013-08-10 11:38:00,80.5,66.3,29.91,WSW,251,4.0,9.0,62,0.00,,---,0.00,VWS V14.01,2013-08-10 15:38:00,
2013-08-10 11:43:00,80.7,65.1,29.91,NW,326,5.0,9.0,59,0.00,,---,0.00,VWS V14.01,2013-08-10 15:43:00,
2013-08-10 11:48:00,80.9,65.2,29.92,NNW,334,3.0,7.0,59,0.00,,---,0.00,VWS V14.01,2013-08-10 15:48:00,
2013-08-10 11:53:00,81.2,66.5,29.91,NW,306,5.0,5.0,61,0.00,,---,0.00,VWS V14.01,2013-08-10 15:53:00,
2013-08-10 11:58:00,81.4,65.7,29.91,WNW,286,3.0,7.0,59,0.00,,---,0.00,VWS V14.01,2013-08-10 15:58:00,
2013-08-10 12:03:00,81.5,65.3,29.92,WSW,255,1.0,5.0,58,0.00,,---,0.00,VWS V14.01,2013-08-10 16:03:00,
2013-08-10 12:09:00,81.6,66.9,29.91,NW,320,1.0,8.0,61,0.00,,---,0.00,VWS V14.01,2013-08-10 16:09:00,
2013-08-10 12:14:00,81.9,65.7,29.91,NW,304,2.0,7.0,58,0.00,,---,0.00,VWS V14.01,2013-08-10 16:14:00,
2013-08-10 12:19:00,82.1,66.8,29.91,WSW,254,4.0,6.0,60,0.00,,---,0.00,VWS V14.01,2013-08-10 16:19:00,
2013-08-10 12:24:00,82.2,66.5,29.91,WNW,292,1.0,4.0,59,0.00,,---,0.00,VWS V14.01,2013-08-10 16:24:00,
2013-08-10 12:28:00,82.4,66.2,29.91,West,270,0.0,4.0,58,0.00,,---,0.00,VWS V14.01,2013-08-10 16:28:00,
2013-08-10 12:33:00,82.5,66.2,29.91,WSW,244,0.0,5.0,58,0.00,,---,0.00,VWS V14.01,2013-08-10 16:33:00,
2013-08-10 12:38:00,82.6,66.8,29.91,SW,217,0.0,7.0,59,0.00,,---,0.00,VWS V14.01,2013-08-10 16:38:00,
2013-08-10 12:43:00,82.8,66.5,29.91,West,266,1.0,6.0,58,0.00,,---,0.00,VWS V14.01,2013-08-10 16:43:00,
2013-08-10 12:48:00,83.0,66.2,29.92,West,262,2.0,7.0,57,0.00,,---,0.00,VWS V14.01,2013-08-10 16:48:00,
2013-08-10 12:53:00,83.2,65.4,29.91,SW,235,1.0,3.0,55,0.00,,---,0.00,VWS V14.01,2013-08-10 16:53:00,
2013-08-10 12:58:00,83.2,66.4,29.92,West,263,0.0,3.0,57,0.00,,---,0.00,VWS V14.01,2013-08-10 16:58:00,
2013-08-10 13:03:00,83.3,66.5,29.92,NW,320,8.0,8.0,57,0.00,,---,0.00,VWS V14.01,2013-08-10 17:03:00,
2013-08-10 13:08:00,83.5,66.2,29.92,SW,234,0.0,7.0,56,0.00,,---,0.00,VWS V14.01,2013-08-10 17:08:00,
2013-08-10 13:13:00,83.7,65.8,29.92,WSW,237,0.0,4.0,55,0.00,,---,0.00,VWS V14.01,2013-08-10 17:13:00,
2013-08-10 13:18:00,83.9,68.1,29.92,SW,230,4.0,8.0,59,0.00,,---,0.00,VWS V14.01,2013-08-10 17:18:00,
2013-08-10 13:23:00,83.9,67.6,29.92,SSW,192,0.0,8.0,58,0.00,,---,0.00,VWS V14.01,2013-08-10 17:23:00,
2013-08-10 13:28:00,83.8,66.4,29.92,SSW,210,5.0,11.0,56,0.00,,---,0.00,VWS V14.01,2013-08-10 17:28:00,
2013-08-10 13:33:00,83.7,66.3,29.92,West,276,1.0,5.0,56,0.00,,---,0.00,VWS V14.01,2013-08-10 17:33:00,
2013-08-10 13:38:00,83.6,67.3,29.92,West,264,2.0,5.0,58,0.00,,---,0.00,VWS V14.01,2013-08-10 17:38:00,
2013-08-10 13:43:00,83.7,67.4,29.92,WSW,237,5.0,7.0,58,0.00,,---,0.00,VWS V14.01,2013-08-10 17:43:00,
2013-08-10 13:48:00,83.1,70.6,29.92,SSW,203,4.0,14.0,66,0.00,,---,0.00,VWS V14.01,2013-08-10 17:48:00,
2013-08-10 13:53:00,81.9,70.3,29.92,SW,215,8.0,12.0,68,0.00,,---,0.00,VWS V14.01,2013-08-10 17:53:00,
2013-08-10 13:58:00,80.5,69.0,29.92,SSW,201,12.0,16.0,68,0.00,,---,0.00,VWS V14.01,2013-08-10 17:58:00,
2013-08-10 14:03:00,79.7,68.2,29.92,SSW,194,13.0,17.0,68,0.00,,---,0.00,VWS V14.01,2013-08-10 18:03:00,
2013-08-10 14:08:00,78.9,67.4,29.91,South,175,17.0,17.0,68,0.00,,---,0.00,VWS V14.01,2013-08-10 18:08:00,
2013-08-10 14:13:00,78.7,67.3,29.92,SSW,203,4.0,17.0,68,0.00,,---,0.00,VWS V14.01,2013-08-10 18:13:00,
2013-08-10 14:18:00,78.4,67.0,29.91,SSW,200,11.0,15.0,68,0.00,,---,0.00,VWS V14.01,2013-08-10 18:18:00,
2013-08-10 14:23:00,78.3,67.3,29.92,South,178,10.0,21.0,69,0.00,,---,0.00,VWS V14.01,2013-08-10 18:23:00,
2013-08-10 14:28:00,78.4,67.4,29.92,South,186,9.0,17.0,69,0.00,,---,0.00,VWS V14.01,2013-08-10 18:28:00,
2013-08-10 14:33:00,78.5,67.5,29.91,SSW,206,11.0,18.0,69,0.00,,---,0.00,VWS V14.01,2013-08-10 18:33:00,
2013-08-10 14:38:00,78.1,67.1,29.91,South,183,11.0,20.0,69,0.00,,---,0.00,VWS V14.01,2013-08-10 18:38:00,
2013-08-10 14:43:00,77.5,66.5,29.91,SW,219,7.0,15.0,69,0.00,,---,0.00,VWS V14.01,2013-08-10 18:43:00,
2013-08-10 14:48:00,77.0,65.2,29.91,SSW,209,14.0,17.0,67,0.00,,---,0.00,VWS V14.01,2013-08-10 18:48:00,
2013-08-10 14:53:00,76.8,65.0,29.92,SSW,195,16.0,19.0,67,0.00,,---,0.00,VWS V14.01,2013-08-10 18:53:00,
2013-08-10 14:58:00,76.6,64.8,29.92,SSW,213,10.0,16.0,67,0.00,,---,0.00,VWS V14.01,2013-08-10 18:58:00,
2013-08-10 15:03:00,76.6,64.4,29.92,South,186,10.0,17.0,66,0.00,,---,0.00,VWS V14.01,2013-08-10 19:03:00,
2013-08-10 15:08:00,76.2,63.6,29.92,SSW,195,15.0,16.0,65,0.00,,---,0.00,VWS V14.01,2013-08-10 19:08:00,
2013-08-10 15:13:00,76.1,63.0,29.92,SW,236,5.0,16.0,64,0.00,,---,0.00,VWS V14.01,2013-08-10 19:13:00,
2013-08-10 15:18:00,76.1,63.0,29.92,SW,232,8.0,22.0,64,0.00,,---,0.00,VWS V14.01,2013-08-10 19:18:00,
2013-08-10 15:23:00,76.1,62.6,29.92,SSW,205,11.0,16.0,63,0.00,,---,0.00,VWS V14.01,2013-08-10 19:23:00,
2013-08-10 15:28:00,76.1,61.2,29.91,WSW,251,13.0,13.0,60,0.00,,---,0.00,VWS V14.01,2013-08-10 19:28:00,
2013-08-10 15:33:00,76.2,61.8,29.91,SSW,197,14.0,15.0,61,0.00,,---,0.00,VWS V14.01,2013-08-10 19:33:00,
2013-08-10 15:38:00,76.4,62.4,29.92,WSW,242,6.0,17.0,62,0.00,,---,0.00,VWS V14.01,2013-08-10 19:38:00,
2013-08-10 15:43:00,76.7,63.2,29.92,SSW,209,18.0,18.0,63,0.00,,---,0.00,VWS V14.01,2013-08-10 19:43:00,
2013-08-10 15:48:00,77.5,64.8,29.92,SSW,209,5.0,16.0,65,0.00,,---,0.00,VWS V14.01,2013-08-10 19:48:00,
2013-08-10 15:53:00,78.0,66.6,29.91,SW,227,5.0,13.0,68,0.00,,---,0.00,VWS V14.01,2013-08-10 19:53:00,
2013-08-10 15:58:00,78.7,67.3,29.92,South,186,10.0,13.0,68,0.00,,---,0.00,VWS V14.01,2013-08-10 19:58:00,
2013-08-10 16:03:00,78.9,67.4,29.92,SW,218,7.0,22.0,68,0.00,,---,0.00,VWS V14.01,2013-08-10 20:03:00,
2013-08-10 16:08:00,78.8,67.4,29.92,SSW,198,1.0,15.0,68,0.00,,---,0.00,VWS V14.01,2013-08-10 20:08:00,
2013-08-10 16:13:00,79.0,68.0,29.92,SW,228,7.0,17.0,69,0.00,,---,0.00,VWS V14.01,2013-08-10 20:13:00,
2013-08-10 16:18:00,79.2,68.2,29.92,West,276,7.0,14.0,69,0.00,,---,0.00,VWS V14.01,2013-08-10 20:18:00,
2013-08-10 16:23:00,79.1,68.5,29.92,SSW,212,8.0,13.0,70,0.00,,---,0.00,VWS V14.01,2013-08-10 20:23:00,
2013-08-10 16:28:00,78.6,68.0,29.92,South,185,6.0,17.0,70,0.00,,---,0.00,VWS V14.01,2013-08-10 20:28:00,
2013-08-10 16:33:00,78.2,67.6,29.93,SW,218,10.0,13.0,70,0.00,,---,0.00,VWS V14.01,2013-08-10 20:33:00,
2013-08-10 16:38:00,78.2,67.6,29.92,SSW,209,8.0,18.0,70,0.00,,---,0.00,VWS V14.01,2013-08-10 20:38:00,
2013-08-10 16:43:00,78.2,67.6,29.92,South,172,12.0,14.0,70,0.00,,---,0.00,VWS V14.01,2013-08-10 20:43:00,
2013-08-10 16:48:00,78.4,67.8,29.92,SW,223,10.0,15.0,70,0.00,,---,0.00,VWS V14.01,2013-08-10 20:48:00,
2013-08-10 16:53:00,78.7,68.1,29.93,SW,236,4.0,13.0,70,0.00,,---,0.00,VWS V14.01,2013-08-10 20:53:00,
2013-08-10 16:58:00,78.9,68.3,29.93,SW,227,8.0,15.0,70,0.00,,---,0.00,VWS V14.01,2013-08-10 20:58:00,
2013-08-10 17:03:00,79.1,68.5,29.93,SW,217,12.0,17.0,70,0.00,,---,0.00,VWS V14.01,2013-08-10 21:03:00,
2013-08-10 17:08:00,78.9,68.3,29.93,SSE,161,16.0,16.0,70,0.00,,---,0.00,VWS V14.01,2013-08-10 21:08:00,
2013-08-10 17:13:00,78.4,67.8,29.92,South,186,8.0,17.0,70,0.00,,---,0.00,VWS V14.01,2013-08-10 21:13:00,
2013-08-10 17:18:00,78.3,67.7,29.93,SSW,197,14.0,14.0,70,0.00,,---,0.00,VWS V14.01,2013-08-10 21:18:00,
2013-08-10 17:23:00,78.4,67.8,29.92,SW,219,17.0,17.0,70,0.00,,---,0.00,VWS V14.01,2013-08-10 21:23:00,
2013-08-10 17:28:00,78.4,67.8,29.93,SSW,201,11.0,16.0,70,0.00,,---,0.00,VWS V14.01,2013-08-10 21:28:00,
2013-08-10 17:33:00,78.4,67.8,29.92,SSW,211,12.0,14.0,70,0.00,,---,0.00,VWS V14.01,2013-08-10 21:33:00,
2013-08-10 17:38:00,78.3,67.7,29.93,SSW,209,5.0,15.0,70,0.00,,---,0.00,VWS V14.01,2013-08-10 21:38:00,
2013-08-10 17:43:00,78.1,67.5,29.92,SW,235,11.0,17.0,70,0.00,,---,0.00,VWS V14.01,2013-08-10 21:43:00,
2013-08-10 17:48:00,77.6,67.1,29.92,SSW,208,14.0,16.0,70,0.00,,---,0.00,VWS V14.01,2013-08-10 21:48:00,
2013-08-10 17:53:00,77.4,66.9,29.93,SSW,195,13.0,14.0,70,0.00,,---,0.00,VWS V14.01,2013-08-10 21:53:00,
2013-08-10 17:58:00,77.4,66.9,29.93,SW,226,6.0,12.0,70,0.00,,---,0.00,VWS V14.01,2013-08-10 21:58:00,
2013-08-10 18:03:00,77.7,67.1,29.92,SSW,211,10.0,13.0,70,0.00,,---,0.00,VWS V14.01,2013-08-10 22:03:00,
2013-08-10 18:08:00,77.8,67.2,29.93,SSW,212,15.0,21.0,70,0.00,,---,0.00,VWS V14.01,2013-08-10 22:08:00,
2013-08-10 18:13:00,77.8,67.2,29.93,South,190,15.0,15.0,70,0.00,,---,0.00,VWS V14.01,2013-08-10 22:13:00,
2013-08-10 18:18:00,77.5,67.4,29.93,South,187,11.0,18.0,71,0.00,,---,0.00,VWS V14.01,2013-08-10 22:18:00,
2013-08-10 18:23:00,77.4,66.9,29.93,SW,229,14.0,17.0,70,0.00,,---,0.00,VWS V14.01,2013-08-10 22:23:00,
2013-08-10 18:28:00,77.2,67.1,29.93,SSW,205,8.0,18.0,71,0.00,,---,0.00,VWS V14.01,2013-08-10 22:28:00,
2013-08-10 18:33:00,77.0,66.9,29.93,South,184,13.0,19.0,71,0.00,,---,0.00,VWS V14.01,2013-08-10 22:33:00,
2013-08-10 18:38:00,76.8,66.7,29.93,SW,224,15.0,15.0,71,0.00,,---,0.00,VWS V14.01,2013-08-10 22:38:00,
2013-08-10 18:43:00,76.5,66.0,29.93,SSW,209,12.0,17.0,70,0.00,,---,0.00,VWS V14.01,2013-08-10 22:43:00,
2013-08-10 18:48:00,76.2,65.7,29.93,SSW,203,4.0,16.0,70,0.00,,---,0.00,VWS V14.01,2013-08-10 22:48:00,
2013-08-10 18:53:00,76.1,65.6,29.93,SW,228,6.0,13.0,70,0.00,,---,0.00,VWS V14.01,2013-08-10 22:53:00,
2013-08-10 18:58:00,76.0,65.1,29.93,SSW,211,9.0,17.0,69,0.00,,---,0.00,VWS V14.01,2013-08-10 22:58:00,
2013-08-10 19:03:00,75.8,64.5,29.93,SSW,212,12.0,14.0,68,0.00,,---,0.00,VWS V14.01,2013-08-10 23:03:00,
2013-08-10 19:08:00,75.6,64.3,29.93,SW,225,11.0,13.0,68,0.00,,---,0.00,VWS V14.01,2013-08-10 23:08:00,
2013-08-10 19:13:00,75.4,63.7,29.93,SW,221,7.0,11.0,67,0.00,,---,0.00,VWS V14.01,2013-08-10 23:13:00,
2013-08-10 19:18:00,75.2,62.6,29.94,SW,215,10.0,10.0,65,0.00,,---,0.00,VWS V14.01,2013-08-10 23:18:00,
2013-08-10 19:23:00,75.0,62.0,29.94,South,191,9.0,10.0,64,0.00,,---,0.00,VWS V14.01,2013-08-10 23:23:00,
2013-08-10 19:28:00,74.8,61.4,29.95,SW,217,3.0,10.0,63,0.00,,---,0.00,VWS V14.01,2013-08-10 23:28:00,
2013-08-10 19:33:00,74.7,61.3,29.94,SSW,202,3.0,6.0,63,0.00,,---,0.00,VWS V14.01,2013-08-10 23:33:00,
2013-08-10 19:38:00,74.7,61.3,29.95,WNW,283,3.0,5.0,63,0.00,,---,0.00,VWS V14.01,2013-08-10 23:38:00,
2013-08-10 19:43:00,74.7,61.7,29.96,NW,307,0.0,3.0,64,0.00,,---,0.00,VWS V14.01,2013-08-10 23:43:00,
2013-08-10 19:48:00,74.6,61.6,29.96,WNW,286,0.0,1.0,64,0.00,,---,0.00,VWS V14.01,2013-08-10 23:48:00,
2013-08-10 19:53:00,74.5,61.5,29.96,WNW,288,0.0,0.0,64,0.00,,---,0.00,VWS V14.01,2013-08-10 23:53:00,
2013-08-10 19:58:00,74.4,61.4,29.96,WNW,288,0.0,0.0,64,0.00,,---,0.00,VWS V14.01,2013-08-10 23:58:00,
2013-08-10 20:03:00,74.2,60.8,29.96,WNW,288,0.0,0.0,63,0.00,,---,0.00,VWS V14.01,2013-08-11 00:03:00,
2013-08-10 20:08:00,74.0,60.2,29.97,SW,225,0.0,0.0,62,0.00,,---,0.00,VWS V14.01,2013-08-11 00:08:00,
2013-08-10 20:13:00,73.8,59.5,29.96,SW,232,0.0,0.0,61,0.00,,---,0.00,VWS V14.01,2013-08-11 00:13:00,
2013-08-10 20:18:00,73.5,60.6,29.97,WSW,247,0.0,6.0,64,0.00,,---,0.00,VWS V14.01,2013-08-11 00:18:00,
2013-08-10 20:23:00,73.4,60.9,29.97,West,271,0.0,0.0,65,0.00,,---,0.00,VWS V14.01,2013-08-11 00:23:00,
2013-08-10 20:28:00,73.3,60.8,29.97,West,280,0.0,0.0,65,0.00,,---,0.00,VWS V14.01,2013-08-11 00:28:00,
2013-08-10 20:33:00,73.3,62.9,29.98,NW,320,0.0,4.0,70,0.00,,---,0.00,VWS V14.01,2013-08-11 00:33:00,
2013-08-10 20:38:00,73.2,63.2,29.98,SW,236,0.0,1.0,71,0.00,,---,0.00,VWS V14.01,2013-08-11 00:38:00,
2013-08-10 20:43:00,73.2,62.8,29.98,WSW,257,0.0,0.0,70,0.00,,---,0.00,VWS V14.01,2013-08-11 00:43:00,
2013-08-10 20:48:00,73.5,63.1,29.98,SW,232,0.0,0.0,70,0.00,,---,0.00,VWS V14.01,2013-08-11 00:48:00,
2013-08-10 20:53:00,73.5,63.1,29.98,West,270,0.0,0.0,70,0.00,,---,0.00,VWS V14.01,2013-08-11 00:53:00,
2013-08-10 20:58:00,73.5,62.7,29.98,SSW,213,0.0,4.0,69,0.00,,---,0.00,VWS V14.01,2013-08-11 00:58:00,
2013-08-10 21:03:00,73.4,62.6,29.99,West,260,0.0,1.0,69,0.00,,---,0.00,VWS V14.01,2013-08-11 01:03:00,
2013-08-10 21:08:00,73.4,62.6,29.99,West,269,0.0,0.0,69,0.00,,---,0.00,VWS V14.01,2013-08-11 01:08:00,
2013-08-10 21:13:00,73.4,63.0,29.99,West,268,0.0,2.0,70,0.00,,---,0.00,VWS V14.01,2013-08-11 01:13:00,
2013-08-10 21:18:00,73.3,62.9,29.99,WSW,251,0.0,0.0,70,0.00,,---,0.00,VWS V14.01,2013-08-11 01:18:00,
2013-08-10 21:23:00,73.1,62.7,29.99,West,260,0.0,0.0,70,0.00,,---,0.00,VWS V14.01,2013-08-11 01:23:00,
2013-08-10 21:28:00,72.9,62.5,29.99,WSW,255,0.0,1.0,70,0.00,,---,0.00,VWS V14.01,2013-08-11 01:28:00,
2013-08-10 21:33:00,72.7,62.4,29.99,WNW,303,0.0,1.0,70,0.00,,---,0.00,VWS V14.01,2013-08-11 01:33:00,
2013-08-10 21:38:00,72.5,62.2,30.00,NW,304,0.0,1.0,70,0.00,,---,0.00,VWS V14.01,2013-08-11 01:38:00,
2013-08-10 21:43:00,72.3,62.0,30.00,NW,311,0.0,3.0,70,0.00,,---,0.00,VWS V14.01,2013-08-11 01:43:00,
2013-08-10 21:48:00,72.2,61.5,30.00,SW,224,0.0,1.0,69,0.00,,---,0.00,VWS V14.01,2013-08-11 01:48:00,
2013-08-10 21:53:00,72.2,61.5,30.00,NW,311,0.0,4.0,69,0.00,,---,0.00,VWS V14.01,2013-08-11 01:53:00,
2013-08-10 21:58:00,72.3,60.7,29.99,WSW,257,2.0,8.0,67,0.00,,---,0.00,VWS V14.01,2013-08-11 01:58:00,
2013-08-10 22:03:00,72.4,60.4,30.00,West,275,4.0,4.0,66,0.00,,---,0.00,VWS V14.01,2013-08-11 02:03:00,
2013-08-10 22:08:00,72.5,60.5,30.01,NNW,328,0.0,3.0,66,0.00,,---,0.00,VWS V14.01,2013-08-11 02:08:00,
2013-08-10 22:13:00,72.4,60.8,30.01,WNW,293,0.0,0.0,67,0.00,,---,0.00,VWS V14.01,2013-08-11 02:13:00,
2013-08-10 22:18:00,72.3,60.7,30.01,West,261,0.0,5.0,67,0.00,,---,0.00,VWS V14.01,2013-08-11 02:18:00,
2013-08-10 22:23:00,72.1,60.5,30.00,NW,309,0.0,0.0,67,0.00,,---,0.00,VWS V14.01,2013-08-11 02:23:00,
2013-08-10 22:28:00,71.9,60.8,30.00,WNW,303,4.0,4.0,68,0.00,,---,0.00,VWS V14.01,2013-08-11 02:28:00,
2013-08-10 22:33:00,71.8,60.3,30.00,West,269,0.0,2.0,67,0.00,,---,0.00,VWS V14.01,2013-08-11 02:33:00,
2013-08-10 22:38:00,71.7,60.2,30.00,WNW,303,4.0,4.0,67,0.00,,---,0.00,VWS V14.01,2013-08-11 02:38:00,
2013-08-10 22:43:00,71.5,60.4,30.00,NW,307,0.0,4.0,68,0.00,,---,0.00,VWS V14.01,2013-08-11 02:43:00,
2013-08-10 22:48:00,71.3,59.8,30.01,North,354,2.0,3.0,67,0.00,,---,0.00,VWS V14.01,2013-08-11 02:48:00,
2013-08-10 22:53:00,71.3,60.2,30.01,WNW,298,0.0,4.0,68,0.00,,---,0.00,VWS V14.01,2013-08-11 02:53:00,
2013-08-10 22:58:00,71.3,60.2,30.01,WNW,292,0.0,5.0,68,0.00,,---,0.00,VWS V14.01,2013-08-11 02:58:00,
2013-08-10 23:03:00,71.3,59.8,30.01,WNW,287,1.0,7.0,67,0.00,,---,0.00,VWS V14.01,2013-08-11 03:03:00,
2013-08-10 23:08:00,71.3,59.8,30.01,West,272,0.0,6.0,67,0.00,,---,0.00,VWS V14.01,2013-08-11 03:08:00,
2013-08-10 23:14:00,71.2,59.7,30.01,North,349,0.0,7.0,67,0.00,,---,0.00,VWS V14.01,2013-08-11 03:14:00,
2013-08-10 23:19:00,71.1,59.6,30.01,NW,318,0.0,5.0,67,0.00,,---,0.00,VWS V14.01,2013-08-11 03:19:00,
2013-08-10 23:24:00,70.8,59.7,30.02,West,274,0.0,4.0,68,0.00,,---,0.00,VWS V14.01,2013-08-11 03:24:00,
2013-08-10 23:28:00,70.7,59.2,30.02,WNW,301,0.0,4.0,67,0.00,,---,0.00,VWS V14.01,2013-08-11 03:28:00,
2013-08-10 23:34:00,70.5,59.4,30.02,NW,306,0.0,5.0,68,0.00,,---,0.00,VWS V14.01,2013-08-11 03:34:00,
2013-08-10 23:39:00,70.2,59.6,30.02,NW,309,0.0,4.0,69,0.00,,---,0.00,VWS V14.01,2013-08-11 03:39:00,
2013-08-10 23:44:00,70.0,59.4,30.02,NW,305,0.0,0.0,69,0.00,,---,0.00,VWS V14.01,2013-08-11 03:44:00,
2013-08-10 23:49:00,69.8,59.6,30.02,West,270,0.0,4.0,70,0.00,,---,0.00,VWS V14.01,2013-08-11 03:49:00,
2013-08-10 23:54:00,69.6,59.4,30.02,NW,325,0.0,3.0,70,0.00,,---,0.00,VWS V14.01,2013-08-11 03:54:00,
2013-08-10 23:59:00,69.4,59.2,30.02,WNW,292,0.0,3.0,70,0.00,,---,0.00,VWS V14.01,2013-08-11 03:59:00,